EW3923 Weather Reports


time (UTC)temp
C
wind
direction
speed
KPH
gust
KPH
rain 1hr
cm
rain 24hr
cm
rain mn
cm
humidity
%
barometer
mb
20260507014916 20 23 1.6 4.8 0.00 0.00 0.00 64 1018.1
20260507013916 21 23 4.8 6.4 0.00 0.00 0.00 62 1018.1
20260507012916 21 293 3.2 8.0 0.00 0.00 0.00 60 1018.0
20260507011917 21 23 3.2 4.8 0.00 0.00 0.00 59 1018.0
20260507010916 21 315 3.2 4.8 0.00 0.00 0.00 59 1018.1
20260507005916 22 0 3.2 6.4 0.00 0.00 0.00 57 1018.2
20260507004916 22 45 6.4 9.7 0.00 0.00 0.00 56 1018.1
20260507003916 22 23 8.0 14.5 0.00 0.00 0.00 55 1018.0
20260507002916 23 23 4.8 8.0 0.00 0.00 0.00 56 1018.0
20260507001916 23 45 6.4 14.5 0.00 0.00 0.00 52 1018.0
20260507000919 23 0 4.8 6.4 0.00 0.00 0.00 53 1018.0
20260506235916 23 0 1.6 3.2 0.00 0.00 0.00 52 1018.0
20260506234916 24 0 4.8 9.7 0.00 0.00 0.00 52 1018.0
20260506233935 24 45 3.2 8.0 0.00 0.00 0.00 51 1018.0
20260506232955 25 270 3.2 11.3 0.00 0.00 0.00 52 1018.0
20260506231915 24 315 3.2 4.8 0.00 0.00 0.00 52 1018.1
20260506230916 24 45 3.2 6.4 0.00 0.00 0.00 50 1018.2
20260506225915 24 338 4.8 8.0 0.00 0.00 0.00 53 1018.2
20260506224915 24 23 6.4 12.9 0.00 0.00 0.00 53 1018.4
20260506223916 24 0 6.4 9.7 0.00 0.00 0.00 53 1018.4
20260506222916 25 23 8.0 17.7 0.00 0.00 0.00 50 1018.5
20260506221915 25 45 1.6 4.8 0.00 0.00 0.00 50 1018.7
20260506220921 25 0 6.4 14.5 0.00 0.00 0.00 49 1018.8
20260506215916 25 315 3.2 8.0 0.00 0.00 0.00 48 1018.8
20260506214916 25 338 3.2 8.0 0.00 0.00 0.00 50 1019.0
20260506213916 25 0 4.8 8.0 0.00 0.00 0.00 49 1019.1
20260506212915 25 293 3.2 8.0 0.00 0.00 0.00 50 1019.2
20260506211916 24 338 1.6 6.4 0.00 0.00 0.00 51 1019.3
20260506210955 23 0 3.2 4.8 0.00 0.00 0.00 50 1019.4
20260506205915 23 338 3.2 4.8 0.00 0.00 0.00 52 1019.6
20260506204915 23 315 3.2 6.4 0.00 0.00 0.00 53 1019.6
20260506203916 23 315 1.6 4.8 0.00 0.00 0.00 55 1019.8
20260506202915 22 0.0 1.6 0.00 0.00 0.00 55 1019.9
20260506201915 22 338 3.2 6.4 0.00 0.00 0.00 54 1020.1
20260506200916 22 45 3.2 6.4 0.00 0.00 0.00 54 1020.1
20260506195915 22 338 3.2 6.4 0.00 0.00 0.00 56 1020.2
20260506194915 22 0 3.2 6.4 0.00 0.00 0.00 57 1020.2
20260506193915 21 45 4.8 11.3 0.00 0.00 0.00 56 1020.3
20260506192915 22 0 6.4 9.7 0.00 0.00 0.00 55 1020.3
20260506191915 22 68 3.2 4.8 0.00 0.00 0.00 57 1020.5
20260506190915 22 45 1.6 4.8 0.00 0.00 0.00 57 1020.5
20260506185915 22 315 3.2 4.8 0.00 0.00 0.00 58 1020.7
20260506184915 21 315 3.2 4.8 0.00 0.00 0.00 59 1020.8
20260506183935 21 315 4.8 8.0 0.00 0.00 0.00 58 1020.8
20260506182915 21 315 1.6 3.2 0.00 0.00 0.00 60 1021.0
20260506181915 21 0.0 3.2 0.00 0.00 0.00 61 1021.0
20260506180915 20 23 4.8 8.0 0.00 0.00 0.00 61 1020.9
20260506175915 20 0 1.6 6.4 0.00 0.00 0.00 62 1020.9
20260506174915 19 293 1.6 3.2 0.00 0.00 0.00 67 1021.0
20260506173915 18 293 1.6 3.2 0.00 0.00 0.00 69 1021.0
20260506172915 18 293 1.6 4.8 0.00 0.00 0.00 72 1021.0
20260506171915 17 293 4.8 6.4 0.00 0.00 0.00 72 1021.0
20260506170915 17 293 3.2 6.4 0.00 0.00 0.00 75 1021.1
20260506165916 16 293 1.6 3.2 0.00 0.00 0.00 76 1021.1
20260506164915 16 293 3.2 6.4 0.00 0.00 0.00 76 1021.1
20260506163915 16 293 1.6 3.2 0.00 0.00 0.00 78 1021.1
20260506162915 16 293 1.6 1.6 0.00 0.00 0.00 78 1021.2
20260506161915 15 293 3.2 6.4 0.00 0.00 0.00 80 1021.2
20260506160915 15 293 1.6 3.2 0.00 0.00 0.00 80 1021.0
20260506155915 15 158 1.6 4.8 0.00 0.00 0.00 82 1021.0
20260506154917 14 0.0 1.6 0.00 0.00 0.00 83 1021.0
20260506153917 14 158 1.6 3.2 0.00 0.00 0.00 83 1021.0
20260506152917 14 158 3.2 4.8 0.00 0.00 0.00 83 1021.0
20260506151937 13 0.0 1.6 0.00 0.00 0.00 83 1021.1
20260506150917 13 158 1.6 4.8 0.00 0.00 0.00 84 1021.1
20260506145917 13 0.0 0.0 0.00 0.00 0.00 84 1021.1
20260506144917 13 0.0 3.2 0.00 0.00 0.00 83 1021.1
20260506143917 13 0.0 1.6 0.00 0.00 0.00 83 1021.0
20260506142918 13 113 1.6 3.2 0.00 0.00 0.00 83 1020.9
20260506141918 13 113 1.6 3.2 0.00 0.00 0.00 83 1021.0
20260506140918 13 0.0 1.6 0.00 0.00 0.00 83 1020.9
20260506135947 13 0.0 1.6 0.00 0.00 0.00 83 1020.8
20260506134939 13 68 1.6 3.2 0.00 0.00 0.00 83 1020.5
20260506133928 13 68 1.6 6.4 0.00 0.00 0.00 83 1020.4
20260506132936 13 0.0 0.0 0.00 0.00 0.00 83 1020.3
20260506131916 13 0.0 0.0 0.00 0.00 0.00 83 1020.2
20260506130916 13 0.0 0.0 0.00 0.00 0.00 82 1020.2
20260506125917 13 68 1.6 4.8 0.00 0.00 0.00 83 1020.1
20260506124917 13 0.0 0.0 0.00 0.00 0.00 83 1020.0
20260506123916 13 0.0 1.6 0.00 0.00 0.00 82 1019.9
20260506122917 13 0.0 0.0 0.00 0.00 0.00 82 1019.9
20260506121937 13 0.0 0.0 0.00 0.00 0.00 82 1019.9
20260506120917 13 0.0 0.0 0.00 0.00 0.00 82 1019.9
20260506115917 13 0.0 0.0 0.00 0.00 0.00 82 1019.8
20260506114937 13 0.0 0.0 0.00 0.00 0.00 82 1019.8
20260506113916 13 0.0 0.0 0.00 0.00 0.00 82 1019.7
20260506112936 13 0.0 0.0 0.00 0.00 0.00 82 1019.7
20260506111916 13 0.0 0.0 0.00 0.00 0.00 82 1019.6
20260506110916 13 0.0 0.0 0.00 0.00 0.00 81 1019.6
20260506105916 13 0.0 0.0 0.00 0.00 0.00 81 1019.5
20260506104916 13 0.0 0.0 0.00 0.00 0.00 81 1019.4
20260506103916 13 0.0 0.0 0.00 0.00 0.00 81 1019.3
20260506102916 13 0.0 0.0 0.00 0.00 0.00 80 1019.4
20260506101916 13 0.0 0.0 0.00 0.00 0.00 80 1019.4
20260506100921 13 0.0 0.0 0.00 0.00 0.00 80 1019.5
20260506095916 13 0.0 0.0 0.00 0.00 0.00 80 1019.4
20260506094916 13 0.0 0.0 0.00 0.00 0.00 80 1019.4
20260506093936 13 0.0 0.0 0.00 0.00 0.00 80 1019.3
20260506092916 13 0.0 0.0 0.00 0.00 0.00 80 1019.4
20260506091916 13 0.0 0.0 0.00 0.00 0.00 80 1019.4
20260506090936 13 0.0 0.0 0.00 0.00 0.00 80 1019.4
20260506085919 13 0.0 0.0 0.00 0.00 0.00 80 1019.4
20260506084936 13 0.0 0.0 0.00 0.00 0.00 80 1019.4
20260506083916 13 0.0 0.0 0.00 0.00 0.00 79 1019.4
20260506082916 13 68 1.6 3.2 0.00 0.00 0.00 79 1019.3
20260506081916 14 0.0 0.0 0.00 0.00 0.00 79 1019.4
20260506080916 14 0.0 0.0 0.00 0.00 0.00 79 1019.4
20260506072916 14 0.0 0.0 0.00 0.00 0.00 78 1019.2
20260506071916 14 0.0 0.0 0.00 0.00 0.00 78 1019.2
20260506070921 14 0.0 0.0 0.00 0.00 0.00 78 1019.0
20260506061916 14 0.0 1.6 0.00 0.00 0.00 75 1018.8
20260506060957 15 0.0 1.6 0.00 0.00 0.00 75 1018.6
20260506050916 15 0.0 1.6 0.00 0.00 0.00 74 1018.2
20260506044936 15 0.0 1.6 0.00 0.00 0.00 73 1018.0
20260506043916 15 0.0 1.6 0.00 0.00 0.00 73 1017.9
20260506042916 15 0.0 1.6 0.00 0.00 0.00 72 1017.9
20260506041916 15 0.0 1.6 0.00 0.00 0.00 72 1017.8
20260506040916 15 0.0 1.6 0.00 0.00 0.00 72 1017.6
20260506035936 15 0.0 1.6 0.00 0.00 0.00 72 1017.4
20260506034916 15 113 1.6 3.2 0.00 0.00 0.00 72 1017.4
20260506033916 15 0.0 1.6 0.00 0.00 0.00 72 1017.3
20260506032936 15 0.0 1.6 0.00 0.00 0.00 72 1017.0
20260506031916 15 0.0 1.6 0.00 0.00 0.00 72 1017.0
20260506030916 15 113 1.6 3.2 0.00 0.00 0.00 72 1016.9
20260506025916 15 0.0 0.0 0.00 0.00 0.00 71 1016.7
20260506024916 15 113 1.6 3.2 0.00 0.00 0.00 71 1016.7
20260506023916 16 0.0 1.6 0.00 0.00 0.00 71 1016.5
20260506022916 16 0.0 1.6 0.00 0.00 0.00 71 1016.4
20260506021918 16 0.0 3.2 0.00 0.00 0.00 71 1016.3
20260506020916 16 0.0 3.2 0.00 0.00 0.00 71 1016.2
20260506015916 16 0.0 1.6 0.00 0.00 0.00 71 1016.4